Location: Madrid
(40.4000°N, 3.6830°W)
Time: 15:00:28
(UTC+02:00)

ISS - Visible Passes

Search period start: 23 May 2018 00:00
Search period end: 02 June 2018 00:00
Orbit: 402 x 407 km, 51.6° (Epoch: 24 May)

Date Brightness Start Highest point End Pass type
(mag) Time Alt. Az. Time Alt. Az. Time Alt. Az.
23 May -0.6 00:35:38 10° NW 00:37:41 15° NNW 00:39:45 10° NNE visible
23 May -0.3 02:13:52 10° NNW 02:15:15 12° N 02:16:37 10° NNE visible
23 May -1.6 03:49:46 10° NW 03:52:35 26° NNE 03:55:24 10° E visible
23 May -3.5 05:26:03 10° WNW 05:29:10 42° SW 05:32:16 10° SSE visible
23 May -3.9 22:05:14 10° SW 22:08:29 73° SE 22:11:45 10° ENE visible
23 May -1.0 23:42:45 10° WNW 23:45:16 20° NNW 23:47:47 10° NNE visible
24 May -0.3 01:21:29 10° NNW 01:22:43 12° N 01:23:57 10° NNE visible
24 May -1.0 02:57:48 10° NNW 03:00:12 19° NNE 03:00:18 19° NNE visible
24 May-0.804:40:48SE04:40:48SE04:32:44NWvisible
24 May -1.6 22:49:59 10° W 22:52:53 29° NNW 22:55:48 10° NE visible
25 May -0.5 00:28:44 10° NNW 00:30:12 12° N 00:31:39 10° NNE visible
25 May -0.7 02:05:49 10° NNW 02:07:45 15° NNE 02:08:18 14° NNE visible
25 May -0.6 23:35:47 10° NW 23:37:41 14° NNW 23:39:34 10° NNE visible
26 May -0.5 01:13:45 10° NNW 01:15:14 12° N 01:16:45 10° NE visible
26 May -0.6 02:49:35 10° NW 02:49:50 12° NW 02:49:50 12° NW visible
26 May -0.8 22:42:50 10° WNW 22:45:12 18° NNW 22:47:34 10° NNE visible
27 May -0.5 00:21:26 10° NNW 00:22:42 12° N 00:23:56 10° NNE visible
27 May -0.9 01:57:34 10° NNW 01:59:01 18° N 01:59:01 18° N visible
27 May -0.6 23:28:46 10° NNW 23:30:08 12° N 23:31:29 10° NNE visible
28 May -1.0 01:05:33 10° NNW 01:07:40 16° NNE 01:08:17 15° NNE visible
28 May -0.7 22:35:50 10° NW 22:37:34 13° N 22:39:18 10° NNE visible
29 May -0.8 00:13:29 10° NNW 00:15:08 13° N 00:16:47 10° NE visible
29 May -0.9 01:49:17 10° NW 01:50:14 17° NNW 01:50:14 17° NNW visible
29 May -0.7 23:21:14 10° NNW 23:22:33 12° N 23:23:51 10° NNE visible
30 May -1.5 00:57:13 10° NNW 00:59:35 23° NNE 00:59:35 23° NNE visible
30 May -0.8 22:28:40 10° NNW 22:29:56 12° N 22:31:13 10° NNE visible
31 May -1.2 00:05:10 10° NNW 00:07:27 17° NNE 00:08:59 13° NE visible
31 May -0.8 01:41:05 10° NW 01:41:37 14° NW 01:41:37 14° NW visible
31 May -1.0 23:13:05 10° NNW 23:14:54 14° NNE 23:16:43 10° NE visible
01 Jun -2.0 00:48:54 10° NW 00:51:01 31° NNW 00:51:01 31° NNW visible
01 Jun -0.9 22:20:53 10° NNW 22:22:17 12° N 22:23:41 10° NNE visible
